Valdosta, GA

5:26 PM EST on January 22, 2018 (GMT -0500)
Moody Air Force Base

Weather History for KVAD - June, 2013

Change the Weather History Date:

Sunday, June 23, 2013

  Actual Average Record
Temperature  
Mean Temperature 80 °F -  
Max Temperature 92 °F 87 °F 102 °F (1998)
Min Temperature 71 °F 69 °F 67 °F (2007)
Cooling Degree Days 16    
Growing Degree Days 30 (Base 50)    
Moisture  
Dew Point 73 °F    
Average Humidity 91    
Maximum Humidity 100    
Minimum Humidity 47    
Precipitation  
Precipitation 0.00 in - - ()
Sea Level Pressure  
Sea Level Pressure 30.13 in    
Wind  
Wind Speed 4 mph (ESE)    
Max Wind Speed 10 mph    
Max Gust Speed -    
Visibility 6 miles    
Events Fog , Rain , Thunderstorm    
Averages and records for this station are not official NWS values.
T = Trace of Precipitation, MM = Missing Value Source: NWS Daily Summary

Daily Weather History Graph

Daily Weather History Graph

Search for Another Location

Airport or City:

Trip Planner

Search our weather history database for the weather conditions in past years. The results will help you decide how hot, cold, wet, or windy it might be!

Date:

Astronomy

Jun. 23, 2013 Rise Set
Actual Time 6:30 AM EDT 8:39 PM EDT
Civil Twilight 6:02 AM EDT 9:07 PM EDT
Nautical Twilight 5:28 AM EDT 9:41 PM EDT
Astronomical Twilight 4:52 AM EDT 10:18 PM EDT
Moon 8:56 PM EDT (6/23) 6:42 AM EDT (6/23)
Length of Visible Light 15h 05m
Length of Day
14h 09m
Full, 100% of the Moon is Illuminated
Jun 23
Full
Jun 30
Last Quarter
Jul 8
New
Jul 15
First Quarter
Jul 22
Full

Hourly Weather History & Observations

Time (EDT) Temp. Heat Index Dew Point Humidity Pressure Visibility Wind Dir Wind Speed Gust Speed Precip Events Conditions
12:22 AM 71.6 °F - 71.6 °F 100% 30.13 in 10.0 mi East 5.8 mph - N/A   Overcast
12:34 AM 71.6 °F - 71.6 °F 100% 30.13 in 10.0 mi East 5.8 mph - N/A   Overcast
12:58 AM 71.6 °F - 71.6 °F 100% 30.13 in 10.0 mi East 2.3 mph - N/A   Mostly Cloudy
1:08 AM 71.6 °F - 71.6 °F 100% 30.13 in 10.0 mi Variable 2.3 mph - N/A   Mostly Cloudy
1:16 AM 71.6 °F - 71.6 °F 100% 30.13 in 10.0 mi ESE 6.9 mph - N/A   Mostly Cloudy
1:28 AM 71.6 °F - 71.6 °F 100% 30.13 in 10.0 mi SE 3.5 mph - N/A   Overcast
1:58 AM 71.8 °F - 71.6 °F 99% 30.12 in 10.0 mi SE 6.9 mph - N/A   Overcast
2:58 AM 72.1 °F - 72.0 °F 99% 30.12 in 10.0 mi SE 4.6 mph - N/A   Overcast
3:42 AM 71.6 °F - 71.6 °F 100% 30.11 in 10.0 mi SE 3.5 mph - N/A   Overcast
3:58 AM 72.5 °F - 72.3 °F 99% 30.11 in 10.0 mi SSE 3.5 mph - N/A   Overcast
4:22 AM 71.6 °F - 71.6 °F 100% 30.11 in 9.0 mi SE 3.5 mph - N/A   Overcast
4:46 AM 71.6 °F - 71.6 °F 100% 30.11 in 7.0 mi SE 5.8 mph - N/A   Overcast
4:58 AM 72.3 °F - 72.3 °F 100% 30.12 in 5.0 mi ESE 4.6 mph - N/A   Overcast
5:18 AM 71.6 °F - 71.6 °F 100% 30.12 in 2.5 mi SE 4.6 mph - N/A   Overcast
5:22 AM 71.6 °F - 71.6 °F 100% 30.12 in 1.8 mi SE 4.6 mph - N/A   Overcast
5:26 AM 71.6 °F - 71.6 °F 100% 30.12 in 1.2 mi SE 3.5 mph - N/A   Overcast
5:28 AM 71.6 °F - 71.6 °F 100% 30.12 in 1.0 mi SE 3.5 mph - N/A   Overcast
5:30 AM 71.6 °F - 71.6 °F 100% 30.12 in 1.0 mi SE 3.5 mph - N/A   Overcast
5:32 AM 71.6 °F - 71.6 °F 100% 30.12 in 0.8 mi SE 3.5 mph - N/A   Mist
5:58 AM 72.1 °F - 72.1 °F 100% 30.12 in 0.8 mi SSE 3.5 mph - N/A   Mist
6:14 AM 71.6 °F - 71.6 °F 100% 30.13 in 0.8 mi ESE 3.5 mph - N/A   Mist
6:18 AM 71.6 °F - 71.6 °F 100% 30.12 in 1.0 mi ESE 3.5 mph - N/A   Mist
6:23 AM 71.6 °F - 71.6 °F 100% 30.12 in 1.0 mi ESE 4.6 mph - N/A Rain Light Rain
6:25 AM 71.6 °F - 71.6 °F 100% 30.12 in 0.8 mi ESE 3.5 mph - N/A Rain Light Rain
6:31 AM 71.6 °F - 71.6 °F 100% 30.12 in 0.8 mi ESE 3.5 mph - N/A Rain Light Rain
6:35 AM 71.6 °F - 71.6 °F 100% 30.12 in 1.0 mi ESE 3.5 mph - N/A   Overcast
6:39 AM 71.6 °F - 71.6 °F 100% 30.12 in 0.8 mi ESE 4.6 mph - N/A   Mist
6:43 AM 71.6 °F - 71.6 °F 100% 30.12 in 0.8 mi SE 3.5 mph - N/A   Overcast
6:47 AM 71.6 °F - 71.6 °F 100% 30.12 in 0.8 mi ESE 2.3 mph - N/A   Overcast
6:49 AM 71.6 °F - 71.6 °F 100% 30.12 in 0.8 mi ESE 3.5 mph - N/A   Overcast
6:53 AM 71.6 °F - 71.6 °F 100% 30.12 in 0.5 mi ESE 4.6 mph - N/A Fog Fog
6:57 AM 71.6 °F - 71.6 °F 100% 30.12 in 0.8 mi ESE 3.5 mph - N/A   Overcast
6:58 AM 71.6 °F - 71.6 °F 100% 30.12 in 0.8 mi ESE 3.5 mph - 0.00 in   Overcast
7:00 AM 71.6 °F - 71.6 °F 100% 30.12 in 1.0 mi ESE 4.6 mph - N/A   Overcast
7:02 AM 71.6 °F - 71.6 °F 100% 30.12 in 1.2 mi ESE 4.6 mph - N/A   Overcast
7:04 AM 71.6 °F - 71.6 °F 100% 30.12 in 1.5 mi ESE 3.5 mph - N/A   Overcast
7:12 AM 71.6 °F - 71.6 °F 100% 30.13 in 1.2 mi ESE 4.6 mph - N/A   Overcast
7:16 AM 71.6 °F - 71.6 °F 100% 30.13 in 1.5 mi SE 3.5 mph - N/A   Overcast
7:20 AM 71.6 °F - 71.6 °F 100% 30.13 in 2.0 mi ESE 4.6 mph - N/A   Overcast
7:24 AM 71.6 °F - 71.6 °F 100% 30.13 in 3.0 mi SE 2.3 mph - N/A   Overcast
7:58 AM 72.7 °F - 72.7 °F 100% 30.15 in 10.0 mi South 3.5 mph - N/A   Overcast
8:08 AM 73.4 °F - 73.4 °F 100% 30.15 in 10.0 mi SE 3.5 mph - N/A   Overcast
8:18 AM 73.4 °F - 73.4 °F 100% 30.15 in 10.0 mi SE 2.3 mph - N/A Rain Light Rain
8:28 AM 75.2 °F - 75.2 °F 100% 30.15 in 10.0 mi ESE 4.6 mph - N/A   Mostly Cloudy
8:34 AM 75.2 °F - 75.2 °F 100% 30.15 in 10.0 mi SE 4.6 mph - N/A   Mostly Cloudy
8:38 AM 75.2 °F - 75.2 °F 100% 30.15 in 10.0 mi SSE 4.6 mph - N/A   Scattered Clouds
8:58 AM 77.4 °F - 74.3 °F 90% 30.15 in 10.0 mi Variable 4.6 mph - 0.00 in   Partly Cloudy
9:58 AM 80.8 °F 84.9 °F 72.0 °F 74% 30.17 in 10.0 mi South 6.9 mph - N/A   Clear
10:58 AM 84.0 °F 89.3 °F 71.4 °F 66% 30.17 in 10.0 mi South 4.6 mph - N/A   Clear
11:58 AM 86.4 °F 91.4 °F 70.5 °F 59% 30.17 in 10.0 mi Variable 5.8 mph - N/A   Scattered Clouds
12:58 PM 87.6 °F 92.7 °F 70.0 °F 56% 30.16 in 10.0 mi SSW 4.6 mph - N/A   Mostly Cloudy
1:58 PM 89.2 °F 94.1 °F 69.3 °F 52% 30.14 in 10.0 mi Variable 5.8 mph - N/A   Overcast
2:58 PM 90.9 °F 94.8 °F 68.2 °F 47% 30.12 in 10.0 mi Variable 6.9 mph - N/A   Mostly Cloudy
3:53 PM 87.8 °F 92.6 °F 69.8 °F 55% 30.11 in 10.0 mi South 10.4 mph - N/A Thunderstorm Thunderstorm
3:58 PM 88.3 °F 93.6 °F 70.2 °F 55% 30.11 in 10.0 mi SSW 9.2 mph - N/A Thunderstorm Thunderstorm
4:08 PM 86.0 °F 91.8 °F 71.6 °F 62% 30.11 in 10.0 mi SW 9.2 mph - N/A   Mostly Cloudy
4:09 PM 86.0 °F 91.8 °F 71.6 °F 62% 30.11 in 10.0 mi SW 8.1 mph - N/A Thunderstorm Thunderstorm
4:24 PM 84.2 °F 89.6 °F 71.6 °F 66% 30.11 in 10.0 mi WSW 8.1 mph - N/A   Mostly Cloudy
4:58 PM 81.0 °F 84.6 °F 70.5 °F 70% 30.12 in 10.0 mi NW 4.6 mph - N/A   Partly Cloudy
5:58 PM 85.3 °F 91.8 °F 72.9 °F 66% 30.10 in 10.0 mi WNW 4.6 mph - N/A   Partly Cloudy
6:58 PM 83.1 °F 90.7 °F 75.2 °F 77% 30.10 in 10.0 mi North 4.6 mph - N/A   Clear
7:58 PM 82.2 °F 89.6 °F 75.9 °F 81% 30.12 in 10.0 mi WNW 3.5 mph - N/A   Clear
8:58 PM 79.5 °F - 75.7 °F 88% 30.13 in 10.0 mi North 2.3 mph - N/A   Partly Cloudy
9:34 PM 78.8 °F - 75.2 °F 89% 30.12 in 9.0 mi Calm Calm - N/A Thunderstorm Clear
9:38 PM 78.8 °F - 75.2 °F 89% 30.13 in 5.0 mi Calm Calm - N/A Thunderstorm Clear
9:39 PM 78.8 °F - 75.2 °F 89% 30.13 in 5.0 mi Calm Calm - N/A Rain , Thunderstorm Light Rain
9:41 PM 77.0 °F - 75.2 °F 94% 30.13 in 4.0 mi Calm Calm - N/A Rain , Thunderstorm Light Rain
9:47 PM 77.0 °F - 75.2 °F 94% 30.13 in 5.0 mi Calm Calm - N/A Rain Light Rain
9:51 PM 77.0 °F - 75.2 °F 94% 30.13 in 8.0 mi Calm Calm - N/A Rain Light Rain
9:53 PM 77.0 °F - 75.2 °F 94% 30.13 in 9.0 mi East 1.2 mph - N/A Rain Light Rain
9:55 PM 77.0 °F - 75.2 °F 94% 30.13 in 8.0 mi ENE 1.2 mph - N/A Rain Light Rain
9:57 PM 77.0 °F - 75.2 °F 94% 30.13 in 6.0 mi East 1.2 mph - N/A Rain Light Rain
9:58 PM 77.2 °F - 76.1 °F 96% 30.13 in 6.0 mi East 2.3 mph - 0.00 in Rain Light Rain
10:06 PM 77.0 °F - 77.0 °F 100% 30.14 in 7.0 mi ENE 9.2 mph - N/A Rain Light Rain
10:12 PM 77.0 °F - 75.2 °F 94% 30.14 in 10.0 mi ENE 4.6 mph - N/A Rain Light Rain
10:20 PM 78.8 °F - 75.2 °F 89% 30.14 in 9.0 mi ENE 2.3 mph - N/A Rain Light Rain
10:48 PM 77.0 °F - 75.2 °F 94% 30.15 in 9.0 mi East 2.3 mph - N/A Rain Light Rain
10:58 PM 77.7 °F - 74.5 °F 90% 30.15 in 10.0 mi East 2.3 mph - 0.00 in Rain Light Rain
11:10 PM 77.0 °F - 73.4 °F 89% 30.16 in 7.0 mi Calm Calm - N/A Rain Light Rain
11:12 PM 77.0 °F - 73.4 °F 89% 30.16 in 5.0 mi Calm Calm - N/A Rain Light Rain
11:14 PM 77.0 °F - 73.4 °F 89% 30.16 in 4.0 mi Calm Calm - N/A Rain Light Rain
11:24 PM 77.0 °F - 73.4 °F 89% 30.16 in 5.0 mi NE 2.3 mph - N/A Rain Light Rain
11:28 PM 77.0 °F - 73.4 °F 89% 30.16 in 7.0 mi ENE 2.3 mph - N/A Rain Light Rain
11:30 PM 77.0 °F - 73.4 °F 89% 30.16 in 9.0 mi ENE 2.3 mph - N/A Rain Light Rain
11:42 PM 77.0 °F - 73.4 °F 89% 30.16 in 9.0 mi East 3.5 mph - N/A Rain Light Rain
11:54 PM 77.0 °F - 73.4 °F 89% 30.16 in 10.0 mi ENE 2.3 mph - N/A Rain Light Rain
11:58 PM 76.6 °F - 73.0 °F 89% 30.16 in 10.0 mi ENE 2.3 mph - 0.00 in Rain Light Rain